Location: Home
(42.5358°N, 72.7383°W)
Time: 16:49:02
(UTC-05:00)

Tiros 1 - Pass Details

Date: 03 December 2021
Orbit: 629 x 664 km, 48.4° (Epoch: 18 January)

Event Time Altitude Azimuth Distance (km) Brightness Sun altitude
Rises 23:19:12 0° 296° (WNW) 2,955 - -69.2°
Reaches altitude 10° 23:21:32 10° 298° (WNW) 2,049 - -69.3°
Maximum altitude 23:26:16 78° 24° (NNE) 670 - -69.5°
Drops below altitude 10° 23:31:02 10° 112° (ESE) 2,063 - -69.6°
Sets 23:33:23 0° 113° (ESE) 2,977 - -69.7°
